Time,TemperatureF,DewpointF,PressureIn,WindDirection,WindDirectionDegrees,WindSpeedMPH,WindSpeedGustMPH,Humidity,HourlyPrecipIn,Conditions,Clouds,dailyrainin,SolarRadiationWatts/m^2,SoftwareType,DateUTC
2013-02-21 00:03:00,24.0,9.0,-100.00,WNW,287,6.0,14.0,52,0.00,,,0.00,0.000000,,2013-02-21 05:03:00,
2013-02-21 00:12:00,24.0,9.0,-100.00,WNW,287,6.0,14.0,52,0.00,,,0.00,0.000000,,2013-02-21 05:12:00,
2013-02-21 00:37:00,24.0,10.0,-100.00,WNW,288,5.0,13.0,55,0.00,,,0.00,0.000000,,2013-02-21 05:37:00,
2013-02-21 00:46:00,24.0,10.0,-100.00,WNW,288,5.0,13.0,55,0.00,,,0.00,0.000000,,2013-02-21 05:46:00,
2013-02-21 01:01:00,24.0,10.0,-100.00,WNW,288,5.0,13.0,55,0.00,,,0.00,0.000000,,2013-02-21 06:01:00,
2013-02-21 01:11:00,24.0,10.0,-100.00,WNW,288,5.0,13.0,55,0.00,,,0.00,0.000000,,2013-02-21 06:11:00,
2013-02-21 01:31:00,23.0,10.0,-100.00,West,280,5.0,11.0,56,0.00,,,0.00,0.000000,,2013-02-21 06:31:00,
2013-02-21 01:42:00,23.0,10.0,-100.00,West,280,5.0,11.0,56,0.00,,,0.00,0.000000,,2013-02-21 06:42:00,
2013-02-21 01:52:00,23.0,10.0,-100.00,West,280,5.0,11.0,56,0.00,,,0.00,0.000000,,2013-02-21 06:52:00,
2013-02-21 02:01:00,23.0,10.0,-100.00,West,280,5.0,11.0,56,0.00,,,0.00,0.000000,,2013-02-21 07:01:00,
2013-02-21 02:11:00,23.0,10.0,-100.00,West,280,5.0,11.0,56,0.00,,,0.00,0.000000,,2013-02-21 07:11:00,
2013-02-21 02:32:00,23.0,9.0,-100.00,WNW,282,5.0,15.0,55,0.00,,,-99.99,0.000000,,2013-02-21 07:32:00,
2013-02-21 02:42:00,23.0,9.0,-100.00,WNW,282,5.0,15.0,55,0.00,,,-99.99,0.000000,,2013-02-21 07:42:00,
2013-02-21 02:52:00,23.0,9.0,-100.00,WNW,282,5.0,15.0,55,0.00,,,-99.99,0.000000,,2013-02-21 07:52:00,
2013-02-21 03:02:00,23.0,9.0,-100.00,WNW,282,5.0,15.0,55,0.00,,,-99.99,0.000000,,2013-02-21 08:02:00,
2013-02-21 03:11:00,23.0,9.0,-100.00,WNW,282,5.0,15.0,55,0.00,,,-99.99,0.000000,,2013-02-21 08:11:00,
2013-02-21 03:42:00,23.0,9.0,-100.00,WNW,284,4.0,12.0,55,0.00,,,0.00,0.000000,,2013-02-21 08:42:00,
2013-02-21 03:52:00,23.0,9.0,-100.00,WNW,284,4.0,12.0,55,0.00,,,0.00,0.000000,,2013-02-21 08:52:00,
2013-02-21 04:02:00,23.0,9.0,-100.00,WNW,284,4.0,12.0,55,0.00,,,0.00,0.000000,,2013-02-21 09:02:00,
2013-02-21 04:11:00,23.0,9.0,-100.00,WNW,284,4.0,12.0,55,0.00,,,0.00,0.000000,,2013-02-21 09:11:00,
2013-02-21 04:32:00,23.0,10.0,-100.00,WNW,291,5.0,12.0,56,0.00,,,0.00,0.000000,,2013-02-21 09:32:00,
2013-02-21 04:42:00,23.0,10.0,-100.00,WNW,291,5.0,12.0,56,0.00,,,0.00,0.000000,,2013-02-21 09:42:00,
2013-02-21 04:52:00,23.0,10.0,-100.00,WNW,291,5.0,12.0,56,0.00,,,0.00,0.000000,,2013-02-21 09:52:00,
2013-02-21 05:01:00,23.0,10.0,-100.00,WNW,291,5.0,12.0,56,0.00,,,0.00,0.000000,,2013-02-21 10:01:00,
2013-02-21 05:11:00,23.0,10.0,-100.00,WNW,291,5.0,12.0,56,0.00,,,0.00,0.000000,,2013-02-21 10:11:00,
2013-02-21 05:31:00,24.0,11.0,-100.00,WNW,284,5.0,15.0,57,0.00,,,0.00,0.000000,,2013-02-21 10:31:00,
2013-02-21 05:41:00,24.0,11.0,-100.00,WNW,284,5.0,15.0,57,0.00,,,0.00,0.000000,,2013-02-21 10:41:00,
2013-02-21 05:51:00,24.0,11.0,-100.00,WNW,284,5.0,15.0,57,0.00,,,0.00,0.000000,,2013-02-21 10:51:00,
2013-02-21 06:01:00,24.0,11.0,-100.00,WNW,284,5.0,15.0,57,0.00,,,0.00,0.000000,,2013-02-21 11:01:00,
2013-02-21 06:11:00,24.0,11.0,-100.00,WNW,284,5.0,15.0,57,0.00,,,0.00,0.000000,,2013-02-21 11:11:00,
2013-02-21 06:41:00,24.0,11.0,-100.00,WNW,287,5.0,15.0,57,0.00,,,0.00,0.000000,,2013-02-21 11:41:00,
2013-02-21 06:52:00,24.0,11.0,-100.00,WNW,287,5.0,15.0,57,0.00,,,0.00,0.000000,,2013-02-21 11:52:00,
2013-02-21 07:01:00,24.0,11.0,-100.00,WNW,287,5.0,15.0,57,0.00,,,0.00,0.000000,,2013-02-21 12:01:00,
2013-02-21 07:11:00,24.0,11.0,-100.00,WNW,287,5.0,15.0,57,0.00,,,0.00,0.000000,,2013-02-21 12:11:00,
2013-02-21 07:32:00,24.0,13.0,-100.00,WNW,299,4.0,10.0,61,0.00,,,0.00,2.000000,,2013-02-21 12:32:00,
2013-02-21 07:43:00,24.0,13.0,-100.00,WNW,299,4.0,10.0,61,0.00,,,0.00,2.000000,,2013-02-21 12:43:00,
2013-02-21 07:53:00,24.0,13.0,-100.00,WNW,299,4.0,10.0,61,0.00,,,0.00,2.000000,,2013-02-21 12:53:00,
2013-02-21 08:02:00,24.0,13.0,-100.00,WNW,299,4.0,10.0,61,0.00,,,0.00,2.000000,,2013-02-21 13:02:00,
2013-02-21 08:12:00,24.0,13.0,-100.00,WNW,299,4.0,10.0,61,0.00,,,0.00,2.000000,,2013-02-21 13:12:00,
2013-02-21 09:32:00,28.0,12.0,-100.00,WNW,298,6.0,13.0,51,-99.99,,,0.00,172.000000,,2013-02-21 14:32:00,
2013-02-21 09:42:00,28.0,12.0,-100.00,WNW,298,6.0,13.0,51,-99.99,,,0.00,172.000000,,2013-02-21 14:42:00,
2013-02-21 09:52:00,28.0,12.0,-100.00,WNW,298,6.0,13.0,51,-99.99,,,0.00,172.000000,,2013-02-21 14:52:00,
2013-02-21 10:02:00,28.0,12.0,-100.00,WNW,298,6.0,13.0,51,-99.99,,,0.00,172.000000,,2013-02-21 15:02:00,
2013-02-21 10:12:00,28.0,12.0,-100.00,WNW,298,6.0,13.0,51,-99.99,,,0.00,172.000000,,2013-02-21 15:12:00,
2013-02-21 10:32:00,34.0,13.0,-100.00,WNW,301,8.0,19.0,42,0.00,,,0.00,470.000000,,2013-02-21 15:32:00,
2013-02-21 11:12:00,34.0,13.0,-100.00,WNW,301,8.0,19.0,42,0.00,,,0.00,470.000000,,2013-02-21 16:12:00,
2013-02-21 11:42:00,34.0,14.0,-100.00,WNW,293,6.0,15.0,43,0.00,,,0.00,448.000000,,2013-02-21 16:42:00,
2013-02-21 11:52:00,34.0,14.0,-100.00,WNW,293,6.0,15.0,43,0.00,,,0.00,448.000000,,2013-02-21 16:52:00,
2013-02-21 12:02:00,34.0,14.0,-100.00,WNW,293,6.0,15.0,43,0.00,,,0.00,448.000000,,2013-02-21 17:02:00,
2013-02-21 12:11:00,34.0,14.0,-100.00,WNW,293,6.0,15.0,43,0.00,,,0.00,448.000000,,2013-02-21 17:11:00,
2013-02-21 12:32:00,37.0,14.0,-100.00,WNW,285,6.0,16.0,39,0.00,,,0.00,652.000000,,2013-02-21 17:32:00,
2013-02-21 13:02:00,37.0,14.0,-100.00,WNW,285,6.0,16.0,39,0.00,,,0.00,652.000000,,2013-02-21 18:02:00,
2013-02-21 13:12:00,37.0,14.0,-100.00,WNW,285,6.0,16.0,39,0.00,,,0.00,652.000000,,2013-02-21 18:12:00,
2013-02-21 14:42:00,39.0,16.0,-100.00,WNW,299,7.0,14.0,38,-99.99,,,0.00,670.000000,,2013-02-21 19:42:00,
2013-02-21 14:52:00,39.0,16.0,-100.00,WNW,299,7.0,14.0,38,-99.99,,,0.00,670.000000,,2013-02-21 19:52:00,
2013-02-21 15:01:00,39.0,16.0,-100.00,WNW,299,7.0,14.0,38,-99.99,,,0.00,670.000000,,2013-02-21 20:01:00,
2013-02-21 15:11:00,39.0,16.0,-100.00,WNW,299,7.0,14.0,38,-99.99,,,0.00,670.000000,,2013-02-21 20:11:00,
2013-02-21 15:42:00,38.0,15.0,-100.00,WNW,297,7.0,16.0,38,0.00,,,0.00,545.000000,,2013-02-21 20:42:00,
2013-02-21 15:53:00,38.0,15.0,-100.00,WNW,297,7.0,16.0,38,0.00,,,0.00,545.000000,,2013-02-21 20:53:00,
2013-02-21 16:02:00,38.0,15.0,-100.00,WNW,297,7.0,16.0,38,0.00,,,0.00,545.000000,,2013-02-21 21:02:00,
2013-02-21 16:12:00,38.0,15.0,-100.00,WNW,297,7.0,16.0,38,0.00,,,0.00,545.000000,,2013-02-21 21:12:00,
2013-02-21 16:42:00,34.0,14.0,-100.00,NW,320,6.0,16.0,43,0.00,,,0.00,93.000000,,2013-02-21 21:42:00,
2013-02-21 16:52:00,34.0,14.0,-100.00,NW,320,6.0,16.0,43,0.00,,,0.00,93.000000,,2013-02-21 21:52:00,
2013-02-21 17:01:00,34.0,14.0,-100.00,NW,320,6.0,16.0,43,0.00,,,0.00,93.000000,,2013-02-21 22:01:00,
2013-02-21 17:11:00,34.0,14.0,-100.00,NW,320,6.0,16.0,43,0.00,,,0.00,93.000000,,2013-02-21 22:11:00,
2013-02-21 17:42:00,32.0,14.0,-100.00,WNW,291,5.0,12.0,46,0.00,,,0.00,80.000000,,2013-02-21 22:42:00,
2013-02-21 17:52:00,32.0,14.0,-100.00,WNW,291,5.0,12.0,46,0.00,,,0.00,80.000000,,2013-02-21 22:52:00,
2013-02-21 18:01:00,32.0,14.0,-100.00,WNW,291,5.0,12.0,46,0.00,,,0.00,80.000000,,2013-02-21 23:01:00,
2013-02-21 18:11:00,32.0,14.0,-100.00,WNW,291,5.0,12.0,46,0.00,,,0.00,80.000000,,2013-02-21 23:11:00,
2013-02-21 18:42:00,30.0,14.0,-100.00,WNW,285,4.0,10.0,51,0.00,,,0.00,9.000000,,2013-02-21 23:42:00,
2013-02-21 18:53:00,30.0,14.0,-100.00,WNW,285,4.0,10.0,51,0.00,,,0.00,9.000000,,2013-02-21 23:53:00,
2013-02-21 19:02:00,30.0,14.0,-100.00,WNW,285,4.0,10.0,51,0.00,,,0.00,9.000000,,2013-02-22 00:02:00,
2013-02-21 19:11:00,30.0,14.0,-100.00,WNW,285,4.0,10.0,51,0.00,,,0.00,9.000000,,2013-02-22 00:11:00,
2013-02-21 19:32:00,28.0,14.0,-100.00,WNW,303,4.0,8.0,56,0.00,,,0.00,0.000000,,2013-02-22 00:32:00,
2013-02-21 19:42:00,28.0,14.0,-100.00,WNW,303,4.0,8.0,56,0.00,,,0.00,0.000000,,2013-02-22 00:42:00,
2013-02-21 19:52:00,28.0,14.0,-100.00,WNW,303,4.0,8.0,56,0.00,,,0.00,0.000000,,2013-02-22 00:52:00,
2013-02-21 20:01:00,28.0,14.0,-100.00,WNW,303,4.0,8.0,56,0.00,,,0.00,0.000000,,2013-02-22 01:01:00,
2013-02-21 20:11:00,28.0,14.0,-100.00,WNW,303,4.0,8.0,56,0.00,,,0.00,0.000000,,2013-02-22 01:11:00,
2013-02-21 20:42:00,27.0,15.0,-100.00,WNW,300,4.0,8.0,60,0.00,,,0.00,0.000000,,2013-02-22 01:42:00,
2013-02-21 20:52:00,27.0,15.0,-100.00,WNW,300,4.0,8.0,60,0.00,,,0.00,0.000000,,2013-02-22 01:52:00,
2013-02-21 21:02:00,27.0,15.0,-100.00,WNW,300,4.0,8.0,60,0.00,,,0.00,0.000000,,2013-02-22 02:02:00,
2013-02-21 21:11:00,27.0,15.0,-100.00,WNW,300,4.0,8.0,60,0.00,,,0.00,0.000000,,2013-02-22 02:11:00,
2013-02-21 21:32:00,27.0,15.0,-100.00,WNW,297,3.0,9.0,59,0.00,,,0.00,0.000000,,2013-02-22 02:32:00,
2013-02-21 21:42:00,27.0,15.0,-100.00,WNW,297,3.0,9.0,59,0.00,,,0.00,0.000000,,2013-02-22 02:42:00,
2013-02-21 21:52:00,27.0,15.0,-100.00,WNW,297,3.0,9.0,59,0.00,,,0.00,0.000000,,2013-02-22 02:52:00,
2013-02-21 22:02:00,27.0,15.0,-100.00,WNW,297,3.0,9.0,59,0.00,,,0.00,0.000000,,2013-02-22 03:02:00,
2013-02-21 22:11:00,27.0,15.0,-100.00,WNW,297,3.0,9.0,59,0.00,,,0.00,0.000000,,2013-02-22 03:11:00,
2013-02-21 22:32:00,26.0,15.0,-100.00,West,272,1.0,4.0,63,0.00,,,0.00,0.000000,,2013-02-22 03:32:00,
2013-02-21 22:42:00,26.0,15.0,-100.00,West,272,1.0,4.0,63,0.00,,,0.00,0.000000,,2013-02-22 03:42:00,
2013-02-21 22:52:00,26.0,15.0,-100.00,West,272,1.0,4.0,63,0.00,,,0.00,0.000000,,2013-02-22 03:52:00,
2013-02-21 23:02:00,26.0,15.0,-100.00,West,272,1.0,4.0,63,0.00,,,0.00,0.000000,,2013-02-22 04:02:00,
2013-02-21 23:11:00,26.0,15.0,-100.00,West,272,1.0,4.0,63,0.00,,,0.00,0.000000,,2013-02-22 04:11:00,
2013-02-21 23:32:00,25.0,16.0,-100.00,WNW,298,1.0,3.0,68,0.00,,,0.00,0.000000,,2013-02-22 04:32:00,
2013-02-21 23:42:00,25.0,16.0,-100.00,WNW,298,1.0,3.0,68,0.00,,,0.00,0.000000,,2013-02-22 04:42:00,
2013-02-21 23:52:00,25.0,16.0,-100.00,WNW,298,1.0,3.0,68,0.00,,,0.00,0.000000,,2013-02-22 04:52:00,